This is the latest recevied weather packets stored in our database for station/object IZ5MMH-14. If no packets are shown the sender has not sent any weather packets the latest 10 day(s).
| Time | Temp. | Humidity | Pressure | Rain* | Wind** | Luminosity | Snow |
|---|---|---|---|---|---|---|---|
| 1777698608 | 13.89° C | 47% | 1025.5 hPa | - | - | - | - |
| 1777698008 | 13.89° C | 45% | 1025.5 hPa | - | - | - | - |
| 1777697408 | 13.33° C | 45% | 1025.4 hPa | - | - | - | - |
| 1777696808 | 12.78° C | 45% | 1025.4 hPa | - | - | - | - |
| 1777696208 | 12.78° C | 45% | 1025.4 hPa | - | - | - | - |
| 1777695608 | 12.78° C | 46% | 1025.3 hPa | - | - | - | - |
| 1777695008 | 12.78° C | 45% | 1025.3 hPa | - | - | - | - |
| 1777694408 | 12.22° C | 45% | 1025.2 hPa | - | - | - | - |
| 1777693808 | 12.78° C | 44% | 1025.2 hPa | - | - | - | - |
| 1777693208 | 12.78° C | 44% | 1025.1 hPa | - | - | - | - |
| 1777692608 | 12.78° C | 43% | 1025.1 hPa | - | - | - | - |
| 1777692008 | 12.22° C | 42% | 1025.1 hPa | - | - | - | - |
| 1777691408 | 12.78° C | 42% | 1025.2 hPa | - | - | - | - |
| 1777690808 | 12.78° C | 41% | 1025.2 hPa | - | - | - | - |
| 1777690208 | 12.22° C | 40% | 1025.2 hPa | - | - | - | - |
| 1777689608 | 12.22° C | 42% | 1025.2 hPa | - | - | - | - |
| 1777689008 | 12.22° C | 42% | 1025.2 hPa | - | - | - | - |
| 1777688408 | 12.78° C | 43% | 1025.2 hPa | - | - | - | - |
| 1777671609 | 14.44° C | 39% | 1024.8 hPa | - | - | - | - |
| 1777670409 | 15° C | 39% | 1024.7 hPa | - | - | - | - |
| 1777669209 | 15.56° C | 38% | 1024.7 hPa | - | - | - | - |
| 1777667409 | 16.67° C | 36% | 1024.5 hPa | - | - | - | - |
| 1777664409 | 17.22° C | 36% | 1023.9 hPa | - | - | - | - |
| 1777663209 | 17.78° C | 35% | 1023.7 hPa | - | - | - | - |
| 1777662609 | 17.78° C | 33% | 1023.6 hPa | - | - | - | - |
* Rain since midnight (hover to see other rain measurements)
** Current wind speed in m/s (hover to see current wind gust speed)